GW2669 Weather Reports


Display with metric or nautical units.
time (UTC)temp
F
wind
direction
speed
MPH
gust
MPH
rain 1hr
in
rain 24hr
in
rain mn
in
humidity
%
barometer
mb
20260904074558 82 293 4.0 5.0 0.00 0.00 0.00 52 1013.8
20260904073117 83 292 4.0 7.0 0.00 0.00 0.00 51 1013.8
20260904071558 82 316 3.0 5.0 0.00 0.00 0.00 53 1013.6
20260904070108 82 293 4.0 7.0 0.00 0.00 0.00 56 1013.7
20260904064605 83 0 1.0 6.0 0.00 0.00 0.00 51 1013.7
20260904063107 83 85 3.0 8.0 0.00 0.00 0.00 50 1013.6
20260904061554 83 78 7.0 11.0 0.00 0.00 0.00 49 1013.7
20260904060129 85 93 10.0 15.0 0.00 0.00 0.00 47 1013.6
20260904054634 85 111 9.0 14.0 0.00 0.00 0.00 46 1013.5
20260904053058 84 0 1.0 6.0 0.00 0.00 0.00 47 1013.6
20260904051601 83 69 3.0 5.0 0.00 0.00 0.00 48 1013.5
20260904044602 84 0 1.0 5.0 0.00 0.00 0.00 47 1013.2
20260904043105 84 28 1.0 5.0 0.00 0.00 0.00 46 1013.3
20260904041605 85 16 5.0 9.0 0.00 0.00 0.00 44 1013.1
20260904034558 86 313 5.0 9.0 0.00 0.00 0.00 45 1012.8
20260904033101 87 261 1.0 4.0 0.00 0.00 0.00 42 1012.4
20260904031607 88 254 3.0 6.0 0.00 0.00 0.00 40 1012.3
20260904030103 88 248 3.0 6.0 0.00 0.00 0.00 40 1012.3
20260904024607 89 233 4.0 8.0 0.00 0.00 0.00 40 1012.2
20260904023107 89 235 5.0 10.0 0.00 0.00 0.00 39 1011.9
20260904021558 90 240 6.0 10.0 0.00 0.00 0.00 38 1011.5
20260904020106 91 0 1.0 4.0 0.00 0.00 0.00 38 1011.4
20260904014621 92 0 2.0 7.0 0.00 0.00 0.00 36 1011.2
20260904013121 93 216 7.0 11.0 0.00 0.00 0.00 35 1011.0
20260904011600 94 209 5.0 8.0 0.00 0.00 0.00 34 1011.0
20260904010116 95 222 7.0 12.0 0.00 0.00 0.00 32 1010.8
20260904004558 98 170 2.0 4.0 0.00 0.03 0.00 26 1010.7
20260904003121 99 158 2.0 8.0 0.00 0.03 0.00 26 1010.8
20260904001601 99 150 3.0 5.0 0.00 0.03 0.00 26 1010.9
20260904000103 98 0 3.0 9.0 0.00 0.03 0.00 26 1010.9
20260903234601 98 134 0.0 8.0 0.00 0.12 0.00 28 1010.8
20260903233104 99 0 3.0 6.0 0.00 0.12 0.00 25 1010.7
20260903231600 100 0 0.0 6.0 0.00 0.12 0.00 25 1010.9
20260903230106 100 248 4.0 11.0 0.00 0.12 0.00 25 1010.9
20260903224600 99 239 2.0 11.0 0.00 0.12 0.00 26 1010.9
20260903223108 99 227 0.0 10.0 0.00 0.12 0.00 26 1010.8
20260903221602 98 244 6.0 13.0 0.00 0.12 0.00 26 1011.0
20260903220104 98 238 9.0 14.0 0.00 0.12 0.00 27 1011.0
20260903214601 98 235 10.0 16.0 0.00 0.12 0.00 28 1011.4
20260903213100 99 268 12.0 17.0 0.00 0.12 0.00 27 1011.5
20260903211612 98 218 12.0 18.0 0.00 0.12 0.00 27 1011.6
20260903204603 98 248 14.0 22.0 0.00 0.12 0.00 26 1012.0
20260903203100 98 266 15.0 22.0 0.00 0.12 0.00 28 1012.3
20260903201606 99 244 15.0 22.0 0.00 0.12 0.00 28 1012.5
20260903200100 99 212 16.0 22.0 0.00 0.12 0.00 30 1012.7
20260903194603 99 232 18.0 27.0 0.00 0.12 0.00 28 1012.8
20260903193107 98 236 17.0 22.0 0.00 0.12 0.00 27 1013.0
20260903191602 99 0 0.0 5.0 0.00 0.12 0.00 29 1013.2
20260903190104 98 82 3.0 6.0 0.00 0.12 0.00 30 1013.4
20260903184606 98 0 0.0 7.0 0.00 0.12 0.00 32 1013.8
20260903183107 98 103 0.0 6.0 0.00 0.12 0.00 31 1013.8
20260903181601 97 0 0.0 5.0 0.00 0.12 0.00 33 1014.1
20260903180110 96 80 1.0 5.0 0.00 0.12 0.00 36 1014.5
20260903174611 95 75 2.0 9.0 0.00 0.12 0.00 34 1014.9
20260903173107 95 0 2.0 6.0 0.00 0.12 0.00 33 1014.7
20260903171607 95 0 1.0 9.0 0.00 0.12 0.00 34 1014.8
20260903170109 94 26 5.0 10.0 0.00 0.12 0.00 36 1015.1
20260903164609 94 42 0.0 5.0 0.00 0.12 0.00 37 1015.1
20260903163104 94 0 0.0 6.0 0.00 0.12 0.00 39 1015.1
20260903161605 92 0 0.0 3.0 0.00 0.12 0.00 40 1015.1
20260903160111 92 0 0.0 0.0 0.00 0.12 0.00 42 1015.0
20260903154612 91 0 0.0 0.0 0.00 0.12 0.00 44 1015.1
20260903153111 89 0 0.0 3.0 0.00 0.12 0.00 44 1015.2
20260903151601 88 0 0.0 3.0 0.00 0.12 0.00 46 1015.2
20260903150109 87 0 0.0 4.0 0.00 0.12 0.00 48 1015.2
20260903144606 86 0 0.0 0.0 0.00 0.12 0.00 51 1015.2
20260903143111 83 0 0.0 0.0 0.00 0.12 0.00 57 1015.3
20260903141611 80 0 0.0 2.0 0.00 0.12 0.00 61 1015.1
20260903134611 77 292 3.0 7.0 0.00 0.12 0.00 65 1015.1
20260903133111 76 274 3.0 7.0 0.00 0.12 0.00 67 1014.8
20260903131601 75 288 2.0 5.0 0.00 0.12 0.00 68 1014.7
20260903130128 74 300 4.0 8.0 0.00 0.12 0.00 69 1014.4
20260903124610 75 297 5.0 8.0 0.00 0.12 0.00 69 1013.7
20260903123104 75 290 2.0 3.0 0.00 0.12 0.00 68 1013.9
20260903121602 75 286 3.0 4.0 0.00 0.12 0.00 67 1013.8
20260903120123 76 284 2.0 3.0 0.00 0.12 0.00 67 1013.8
20260903114557 76 0 0.0 0.0 0.00 0.12 0.00 69 1013.8
20260903113100 75 0 0.0 1.0 0.00 0.12 0.00 70 1013.8
20260903111604 76 0 0.0 0.0 0.00 0.12 0.00 68 1013.7
20260903104604 77 0 0.0 2.0 0.00 0.12 0.00 62 1013.6
20260903103105 78 0 0.0 0.0 0.00 0.12 0.00 57 1013.9
20260903101602 77 0 0.0 0.0 0.00 0.12 0.00 61 1013.8
20260903100104 78 0 0.0 0.0 0.00 0.12 0.00 63 1013.9
20260903094607 79 0 0.0 0.0 0.00 0.12 0.00 56 1013.9
20260903093059 79 0 0.0 0.0 0.00 0.12 0.00 56 1014.0
20260903091603 79 0 0.0 2.0 0.00 0.12 0.00 56 1014.0
20260903090105 79 0 0.0 2.0 0.00 0.12 0.00 57 1014.0
20260903084603 80 145 2.0 3.0 0.00 0.12 0.00 55 1014.0
20260903083115 80 241 0.0 0.0 0.00 0.12 0.00 55 1014.1
20260903081620 80 0 0.0 5.0 0.00 0.12 0.00 55 1014.2
20260903080103 81 151 2.0 4.0 0.00 0.12 0.00 53 1014.2